Location: ?????
(31.7405°N, 35.1927°E)
Time: 08:36:58
(UTC+00:00)

ALOS - Pass Details

Date: 17 February 2020
Orbit: 683 x 685 km, 97.8° (Epoch: 31 March)

Event Time Altitude Azimuth Distance (km) Brightness Sun altitude
Rises 03:38:36 0° 355° (N) 3,050 5.5 -9.5°
Reaches altitude 10° 03:41:14 10° 340° (NNW) 2,130 4.5 -8.9°
Maximum altitude 03:44:49 22° 290° (WNW) 1,459 3.4 -8.2°
Drops below altitude 10° 03:48:24 10° 239° (WSW) 2,121 4.4 -7.4°
Sets 03:51:02 0° 225° (SW) 3,032 5.3 -6.8°
